Вернуться в каталог

STARLINK-34809

АктивенСвязьSSO
NORAD 65069·PAYLOAD·🇺🇸 United States

Запущен Jul 31, 2025 с Vandenberg Space Force Base

Loading…

Ближайшие Пролёты (ближайшие 24 часа)

TLE

СвежийSource: CelesTrak SupGP

Эпоха: Sep 14, 2026, 22:44 UTC

1 65069C 25165P   26257.94770833  .01895900  00000+0  77241-1 0  2578
2 65069  97.2841 329.2053 0001748  83.4575 202.9527 15.23591191    10

Отслеживайте STARLINK-34809 в реальном времени с AllMySat

Download on the App Store